Lille, France

10:05 AM CET on February 10, 2016 (GMT +0100)
Lesquin

Weather History for LFQQ - March, 2013

Change the Weather History Date:

Saturday, March 2, 2013

  Actual Average Record
Temperature  
Mean Temperature 36 °F -  
Max Temperature 38 °F 50 °F - ()
Min Temperature 34 °F 37 °F - ()
Degree Days  
Heating Degree Days 29    
Moisture  
Dew Point 28 °F    
Average Humidity 73    
Maximum Humidity 75    
Minimum Humidity 60    
Precipitation  
Precipitation 0.00 in - - ()
Sea Level Pressure  
Sea Level Pressure 30.29 in    
Wind  
Wind Speed 7 mph ()    
Max Wind Speed 10 mph    
Max Gust Speed -    
Visibility 5.7 miles    
Events      
T = Trace of Precipitation, MM = Missing Value Source: Averaged Metar Reports

Daily Weather History Graph

Daily Weather History Graph

Search for Another Location

Airport or City:

Trip Planner

Search our weather history database for the weather conditions in past years. The results will help you decide how hot, cold, wet, or windy it might be!

Date:

Astronomy

Mar. 02, 2013 Rise Set
Actual Time 7:29 AM CET 6:30 PM CET
Civil Twilight 6:56 AM CET 7:03 PM CET
Nautical Twilight 6:18 AM CET 7:41 PM CET
Astronomical Twilight 5:40 AM CET 8:19 PM CET
Moon No Moon Rise 9:10 AM CET (3/2)
Length of Visible Light 12h 07m
Length of Day
11h 01m
Waning Gibbous, 76% of the Moon is Illuminated
Mar 2
Waning Gibbous
Mar 4
Last Quarter
Mar 11
New
Mar 19
First Quarter
Mar 27
Full

Hourly Weather History & Observations

Time (CET) Temp. Windchill Dew Point Humidity Pressure Visibility Wind Dir Wind Speed Gust Speed Precip Events Conditions
12:00 AM 37.4 °F 30.3 °F 28.4 °F 70% 30.33 in 6.2 mi NE 10.4 mph - N/A   Mostly Cloudy
12:30 AM 37.4 °F 30.8 °F 30.2 °F 75% 30.33 in 6.2 mi NE 9.2 mph - N/A   Mostly Cloudy
1:00 AM 36 °F - 29 °F 67% 30.35 in 6 mi ENE 9.2 mph - -   Mostly Cloudy
1:00 AM 37.4 °F 31.4 °F 28.4 °F 70% 30.33 in 6.2 mi NE 8.1 mph - N/A   Mostly Cloudy
1:30 AM 37.4 °F 31.4 °F 28.4 °F 70% 30.33 in 6.2 mi ENE 8.1 mph - N/A   Overcast
2:00 AM 35.6 °F 29.2 °F 28.4 °F 75% 30.33 in 6.2 mi ENE 8.1 mph - N/A   Overcast
2:30 AM 35.6 °F 29.2 °F 28.4 °F 75% 30.33 in 6.2 mi ENE 8.1 mph - N/A   Overcast
3:00 AM 35.6 °F 29.9 °F 28.4 °F 75% 30.33 in 6.2 mi ENE 6.9 mph - N/A   Overcast
3:30 AM 35.6 °F 28.0 °F 28.4 °F 75% 30.30 in 6.2 mi NE 10.4 mph - N/A   Overcast
4:00 AM 35.6 °F 28.6 °F 28.4 °F 75% 30.30 in 6.2 mi NE 9.2 mph - N/A   Overcast
4:30 AM 35.6 °F 29.2 °F 28.4 °F 75% 30.30 in 6.2 mi ENE 8.1 mph - N/A   Overcast
5:00 AM 35.6 °F 28.0 °F 28.4 °F 75% 30.30 in 6.2 mi ENE 10.4 mph - N/A   Overcast
5:30 AM 35.6 °F 29.2 °F 28.4 °F 75% 30.30 in 6.2 mi NE 8.1 mph - N/A   Overcast
6:00 AM 35.6 °F 28.6 °F 28.4 °F 75% 30.30 in 6.2 mi ENE 9.2 mph - N/A   Overcast
6:30 AM 35.6 °F 29.2 °F 28.4 °F 75% 30.30 in 6.2 mi NE 8.1 mph - N/A   Overcast
7:00 AM 35 °F - 28 °F 65% 30.33 in 7 mi ENE 8.1 mph - -   Partly Cloudy
7:00 AM 35.6 °F 29.2 °F 28.4 °F 75% 30.30 in 6.2 mi NE 8.1 mph - N/A   Overcast
7:30 AM 35.6 °F 29.2 °F 28.4 °F 75% 30.30 in 6.2 mi ENE 8.1 mph - N/A   Overcast
8:00 AM 35.6 °F 28.6 °F 28.4 °F 75% 30.30 in 6.2 mi East 9.2 mph - N/A   Overcast
8:30 AM 35.6 °F 30.7 °F 28.4 °F 75% 30.30 in 5.6 mi ENE 5.8 mph - N/A   Overcast
9:00 AM 35.6 °F 30.7 °F 28.4 °F 75% 30.30 in 5.6 mi ENE 5.8 mph - N/A   Overcast
9:30 AM 35.6 °F 30.7 °F 28.4 °F 75% 30.30 in 5.6 mi ENE 5.8 mph - N/A   Overcast
10:00 AM 35.6 °F 29.9 °F 28.4 °F 75% 30.30 in 5.6 mi ENE 6.9 mph - N/A   Overcast
10:30 AM 35.6 °F 29.2 °F 26.6 °F 70% 30.30 in 6.2 mi NE 8.1 mph - N/A   Overcast
11:00 AM 35.6 °F 30.7 °F 28.4 °F 75% 30.30 in 6.2 mi ENE 5.8 mph - N/A   Overcast
11:30 AM 35.6 °F 29.9 °F 28.4 °F 75% 30.30 in 6.2 mi ENE 6.9 mph - N/A   Overcast
12:00 PM 35.6 °F 28.6 °F 28.4 °F 75% 30.30 in 6.2 mi ENE 9.2 mph - N/A   Overcast
12:30 PM 35.6 °F 29.9 °F 28.4 °F 75% 30.30 in 6.2 mi NE 6.9 mph - N/A   Overcast
1:00 PM 37.4 °F 31.4 °F 28.4 °F 70% 30.30 in 6.2 mi ENE 8.1 mph - N/A   Overcast
1:30 PM 37.4 °F 32.8 °F 28.4 °F 70% 30.30 in 6.2 mi ENE 5.8 mph - N/A   Overcast
2:00 PM 37.4 °F 32.8 °F 28.4 °F 70% 30.30 in 5.6 mi ENE 5.8 mph - N/A   Overcast
2:30 PM 37.4 °F 32.8 °F 28.4 °F 70% 30.27 in 5.6 mi ENE 5.8 mph - N/A   Overcast
3:00 PM 37.4 °F 31.4 °F 28.4 °F 70% 30.27 in 5.0 mi East 8.1 mph - N/A   Mostly Cloudy
3:30 PM 37.4 °F 32.8 °F 28.4 °F 70% 30.27 in 5.0 mi ENE 5.8 mph - N/A   Overcast
4:00 PM 37.4 °F 32.1 °F 28.4 °F 70% 30.27 in 5.0 mi ENE 6.9 mph - N/A   Mostly Cloudy
5:00 PM 37.4 °F 32.1 °F 28.4 °F 70% 30.27 in 5.0 mi ENE 6.9 mph - N/A   Overcast
5:30 PM 37.4 °F 31.4 °F 28.4 °F 70% 30.24 in 6.2 mi ENE 8.1 mph - N/A   Mostly Cloudy
6:00 PM 37.4 °F 32.1 °F 28.4 °F 70% 30.24 in 6.2 mi NE 6.9 mph - N/A   Overcast
6:30 PM 37.4 °F 30.8 °F 28.4 °F 70% 30.24 in 5.6 mi ENE 9.2 mph - N/A   Overcast
7:00 PM 37 °F - 28 °F 60% 30.28 in 5 mi ENE 8.1 mph - -   Overcast
7:00 PM 37.4 °F 31.4 °F 28.4 °F 70% 30.27 in 5.0 mi ENE 8.1 mph - N/A   Overcast
7:30 PM 37.4 °F 30.8 °F 28.4 °F 70% 30.27 in 5.0 mi ENE 9.2 mph - N/A   Overcast
8:00 PM 35.6 °F 28.6 °F 28.4 °F 75% 30.27 in 5.0 mi ENE 9.2 mph - N/A   Overcast
8:30 PM 35.6 °F 30.7 °F 28.4 °F 75% 30.27 in 4.3 mi ENE 5.8 mph - N/A   Overcast
9:00 PM 35.6 °F 29.9 °F 28.4 °F 75% 30.27 in 4.3 mi ENE 6.9 mph - N/A   Overcast
9:30 PM 35.6 °F 30.7 °F 28.4 °F 75% 30.27 in 5.0 mi ENE 5.8 mph - N/A   Overcast
10:00 PM 35.6 °F 29.9 °F 28.4 °F 75% 30.27 in 5.0 mi ENE 6.9 mph - N/A   Overcast
10:30 PM 35.6 °F 29.9 °F 28.4 °F 75% 30.27 in 5.0 mi ENE 6.9 mph - N/A   Overcast
11:00 PM 35.6 °F 32.8 °F 28.4 °F 75% 30.27 in 5.0 mi ENE 3.5 mph - N/A   Overcast
11:30 PM 35.6 °F 32.8 °F 28.4 °F 75% 30.27 in 5.0 mi ENE 3.5 mph - N/A   Overcast